[[{"header":{"parameterUnit":"m.s-1","parameterCategory":1,"la1":30.2991,"la2":30.254,"lo1":-89.0895,"lo2":-89.0444,"dy":0.0017,"dx":0.0017,"nx":28,"ny":28,"refTime":"2024-04-22T03:00:00:Z","depth":0,"parameterNumber":2,"parameterNumberName":"U-component_of_WINDS"},"data":[0,0,0,0,0,0,0,0,0,0,0,0,0,0,0,0,0,0,0,0,0,0,0,0,0,0,0,0,0,0,0,0,0,0,0,0,0,0,0,0,0,0,0,0,0,0,0,0,0,0,0,0,0,0,0,0,0,0,-0.031,-0.031,0,-0.0365,-0.0366,-0.0366,-0.0367,-0.0366,-0.0365,-0.0365,-0.0421,-0.0424,-0.0426,0,0,0,0,0,0,0,0,0,0,0,0,0,-0.0202,-0.0204,-0.031,-0.031,-0.0311,-0.0365,-0.0366,-0.0367,-0.0367,-0.0366,-0.0365,-0.0364,-0.0421,-0.0423,-0.0426,0,0,0,0,0,0,0,0,0,0,0,0,0,-0.0252,-0.0205,-0.0309,-0.0318,-0.0319,-0.0365,-0.0366,-0.0367,-0.0367,-0.0366,-0.0365,-0.0364,-0.042,-0.0423,-0.0426,-0.0468,0,0,-0.0436,-0.0438,0,0,0,0,0,0,0,0,-0.025,-0.0256,-0.0316,-0.0317,-0.0319,-0.0358,-0.0349,-0.0401,-0.0367,-0.0349,-0.0365,-0.0363,-0.0401,-0.0406,-0.0419,-0.0471,-0.0473,-0.0437,-0.0439,-0.044,-0.0441,0,0,0,0,0,0,0,-0.0246,-0.0254,-0.0332,-0.0317,-0.0318,-0.0318,-0.0324,-0.0359,-0.038,-0.035,-0.035,-0.0357,-0.0402,-0.0416,-0.042,-0.0474,-0.0436,-0.0439,-0.0441,-0.0443,-0.0561,-0.0563,0,0,0,0,0,0,-0.0241,-0.0251,-0.033,-0.0333,-0.0281,-0.0321,-0.0328,-0.0346,-0.038,-0.0384,-0.0358,-0.0357,-0.041,-0.0416,-0.0422,-0.0473,-0.044,-0.0443,-0.0445,-0.056,-0.0562,-0.0563,0,0,0,0,0,0,-0.0239,-0.0248,-0.0328,-0.0292,-0.0302,-0.0324,-0.0345,-0.0348,-0.0362,-0.0386,-0.0389,-0.0368,-0.041,-0.0417,-0.0456,-0.0475,-0.0444,-0.0447,-0.0559,-0.0561,-0.0562,-0.0575,0,0,0,0,0,0,-0.0236,-0.0247,-0.0264,-0.0293,-0.0304,-0.0362,-0.0346,-0.035,-0.0368,-0.0367,-0.0396,-0.04,-0.041,-0.0451,-0.046,-0.0479,-0.045,-0.0557,-0.056,-0.0562,-0.0573,-0.0577,-0.058,0,0,0,0,0,-0.0232,-0.0265,-0.0265,-0.0274,-0.0325,-0.0363,-0.0369,-0.038,-0.0369,-0.0386,-0.0401,-0.0399,-0.0471,-0.0455,-0.0465,-0.0485,-0.0556,-0.0559,-0.0562,-0.0571,-0.0576,-0.058,0,0,0,0,0,0,-0.0239,-0.0269,-0.0269,-0.0313,-0.0335,-0.0363,-0.0384,-0.0384,-0.041,-0.0408,-0.042,-0.0426,-0.0465,-0.0479,-0.0461,-0.0526,-0.0512,-0.0517,-0.0517,-0.0521,-0.0525,-0.0522,-0.0453,0,0,0,0,0,-0.0245,-0.0273,-0.0298,-0.0334,-0.0345,-0.0363,-0.0379,-0.0385,-0.0409,-0.0418,-0.0436,-0.0459,-0.0486,-0.0504,-0.0531,-0.0574,-0.0581,-0.0593,-0.0596,-0.0599,-0.0604,-0.0627,-0.0633,-0.0572,-0.0572,-0.0572,0,0,-0.0259,-0.0279,-0.0296,-0.0336,-0.0354,-0.0382,-0.0371,-0.0401,-0.0422,-0.0423,-0.0461,-0.0474,-0.05,-0.0541,-0.056,-0.0554,-0.0621,-0.0603,-0.0605,-0.0608,-0.063,-0.0636,-0.0641,-0.0574,-0.0573,-0.0573,0,0,-0.0299,-0.0317,-0.0349,-0.0367,-0.0394,-0.0405,-0.0413,-0.044,-0.0449,-0.0487,-0.0487,-0.0512,-0.0559,-0.0578,-0.0593,-0.0638,-0.0638,-0.0646,-0.0666,-0.0689,-0.0694,-0.0698,-0.0714,-0.072,-0.065,-0.065,-0.065,0,-0.0313,-0.0357,-0.0366,-0.0396,-0.0414,-0.0414,-0.0447,-0.0463,-0.0498,-0.0509,-0.0501,-0.056,-0.0578,-0.0623,-0.0634,-0.0646,-0.0655,-0.0644,-0.0692,-0.0697,-0.0701,-0.0717,-0.0723,-0.0651,-0.0651,-0.0651,-0.0651,0,-0.0373,-0.0402,-0.0425,-0.0458,-0.0477,-0.0509,-0.0522,-0.054,-0.0544,-0.0555,-0.0593,-0.0614,-0.0645,-0.0655,-0.0659,-0.0701,-0.0696,-0.069,-0.0676,-0.0707,-0.0722,-0.0728,-0.0652,-0.0652,-0.0652,-0.0652,0,0,-0.0421,-0.0457,-0.0466,-0.048,-0.0509,-0.0532,-0.0562,-0.0592,-0.0608,-0.0631,-0.0657,-0.0696,-0.069,-0.0708,-0.0713,-0.0733,-0.0767,-0.0724,-0.0725,-0.0732,-0.0814,-0.082,-0.0826,-0.0766,-0.0767,-0.0768,-0.0812,0,-0.0465,-0.052,-0.0528,-0.0577,-0.0604,-0.0604,-0.063,-0.0651,-0.0662,-0.0686,-0.0697,-0.0725,-0.0715,-0.0726,-0.0745,-0.0759,-0.0784,-0.0755,-0.079,-0.0792,-0.0786,-0.0834,-0.084,-0.0881,-0.0818,-0.0819,-0.082,0,-0.0524,-0.0549,-0.06,-0.0624,-0.0636,-0.066,-0.0687,-0.071,-0.0733,-0.0739,-0.0758,-0.076,-0.0791,-0.0774,-0.0817,-0.0798,-0.0812,-0.082,-0.0822,-0.0827,-0.0809,-0.0842,-0.0895,-0.0901,-0.0829,-0.0828,-0.0828,0,-0.0555,-0.0601,-0.0637,-0.065,-0.0679,-0.0695,-0.0708,-0.0729,-0.0746,-0.077,-0.0781,-0.0807,-0.0822,-0.0842,-0.0852,-0.0839,-0.0894,-0.0878,-0.09,-0.09,-0.0913,-0.0913,-0.0971,-0.092,-0.092,-0.092,-0.092,0,-0.0605,-0.0636,-0.0652,-0.0674,-0.0709,-0.0717,-0.0751,-0.0763,-0.0782,-0.0806,-0.0807,-0.083,-0.084,-0.0864,-0.0871,-0.0905,-0.0912,-0.0918,-0.0919,-0.0919,-0.0918,-0.0929,-0.0927,-0.0922,-0.0921,-0.0921,-0.0921,0,-0.0646,-0.0658,-0.0698,-0.0721,-0.0728,-0.0753,-0.0773,-0.0794,-0.0804,-0.0835,-0.0842,-0.0858,-0.0886,-0.0896,-0.0931,-0.0935,-0.0975,-0.0974,-0.0968,-0.0969,-0.0991,-0.0989,-0.1059,-0.1069,-0.1011,-0.1011,-0.1012,0,-0.0678,-0.0702,-0.0728,-0.0745,-0.0758,-0.0784,-0.0802,-0.081,-0.0827,-0.0853,-0.0872,-0.09,-0.0923,-0.0968,-0.0982,-0.1007,-0.1008,-0.103,-0.1012,-0.101,-0.1009,-0.1008,-0.1011,-0.1035,-0.1035,-0.1036,-0.1036,0,-0.0733,-0.0737,-0.0762,-0.0789,-0.0809,-0.083,-0.0851,-0.0864,-0.0875,-0.0894,-0.0923,-0.0941,-0.0976,-0.1003,-0.103,-0.1042,-0.1041,-0.1041,-0.1048,-0.1048,-0.1044,-0.1047,-0.0979,-0.104,-0.104,-0.104,-0.1039,-0.1039,-0.0771,-0.0793,-0.0814,-0.0841,-0.0858,-0.0876,-0.0898,-0.091,-0.0934,-0.0963,-0.0966,-0.0997,-0.1017,-0.1052,-0.1065,-0.1089,-0.1083,-0.1092,-0.1095,-0.1098,-0.11,-0.1039,-0.1093,-0.1093,-0.1093,-0.1093,-0.1093,0,-0.0827,-0.084,-0.0865,-0.0894,-0.0915,-0.0911,-0.0933,-0.0952,-0.0979,-0.0998,-0.102,-0.1053,-0.1079,-0.1094,-0.112,-0.1136,-0.1136,-0.1143,-0.1143,-0.1146,-0.1103,-0.1095,-0.1143,-0.1143,-0.1142,-0.1142,-0.1142,-0.1142,-0.0859,-0.0895,-0.0901,-0.0944,-0.0957,-0.0988,-0.1001,-0.1018,-0.1033,-0.1069,-0.1091,-0.1101,-0.1118,-0.1145,-0.1169,-0.1172,-0.1182,-0.119,-0.1193,-0.1154,-0.1149,-0.1144,-0.1137,-0.1192,-0.1192,-0.1234,-0.1234,-0.1234]},{"header":{"parameterUnit":"m.s-1","parameterCategory":1,"la1":30.2991,"la2":30.254,"lo1":-89.0895,"lo2":-89.0444,"dy":0.0017,"dx":0.0017,"nx":28,"ny":28,"refTime":"2024-04-22T03:00:00:Z","depth":0,"parameterNumber":3,"parameterNumberName":"V-component_of_WINDS"},"data":[0,0,0,0,0,0,0,0,0,0,0,0,0,0,0,0,0,0,0,0,0,0,0,0,0,0,0,0,0,0,0,0,0,0,0,0,0,0,0,0,0,0,0,0,0,0,0,0,0,0,0,0,0,0,0,0,0,0,-7.3962,-7.3962,0,-7.398,-7.398,-7.398,-7.3855,-7.3852,-7.3848,-7.3845,-7.3858,-7.3862,-7.3865,0,0,0,0,0,0,0,0,0,0,0,0,0,-7.3818,-7.3821,-7.3962,-7.3962,-7.3963,-7.398,-7.398,-7.398,-7.3856,-7.3852,-7.3847,-7.3843,-7.3857,-7.3861,-7.3866,0,0,0,0,0,0,0,0,0,0,0,0,0,-7.3863,-7.3823,-7.3962,-7.3903,-7.3898,-7.398,-7.398,-7.398,-7.3857,-7.3851,-7.3846,-7.3841,-7.3856,-7.3861,-7.3866,-7.4005,0,0,-7.3883,-7.3885,0,0,0,0,0,0,0,0,-7.386,-7.3868,-7.3911,-7.3907,-7.3901,-7.391,-7.3934,-7.3988,-7.3858,-7.3872,-7.3845,-7.3839,-7.388,-7.3883,-7.3897,-7.4005,-7.4006,-7.3883,-7.3887,-7.3889,-7.3891,0,0,0,0,0,0,0,-7.3857,-7.3867,-7.3969,-7.3912,-7.3906,-7.3874,-7.3875,-7.3944,-7.3905,-7.387,-7.3862,-7.3866,-7.3876,-7.3892,-7.3897,-7.4006,-7.3883,-7.3888,-7.3891,-7.3894,-7.423,-7.4236,0,0,0,0,0,0,-7.3863,-7.3865,-7.3968,-7.3969,-7.3868,-7.3881,-7.3882,-7.3912,-7.3904,-7.3898,-7.387,-7.386,-7.3886,-7.389,-7.3897,-7.4059,-7.3889,-7.3894,-7.3897,-7.4225,-7.4231,-7.4238,0,0,0,0,0,0,-7.386,-7.3873,-7.3968,-7.3915,-7.3924,-7.3889,-7.3925,-7.3916,-7.3932,-7.3903,-7.3895,-7.3894,-7.3882,-7.3889,-7.3979,-7.4058,-7.3897,-7.3901,-7.4218,-7.4227,-7.4234,-7.4384,0,0,0,0,0,0,-7.3857,-7.3873,-7.3926,-7.3917,-7.3928,-7.4051,-7.393,-7.392,-7.3942,-7.3929,-7.3924,-7.3918,-7.3878,-7.3972,-7.3985,-7.4062,-7.3906,-7.4211,-7.4222,-7.4232,-7.4372,-7.4397,-7.4418,0,0,0,0,0,-7.3852,-7.3966,-7.3929,-7.3942,-7.3993,-7.4056,-7.4062,-7.4015,-7.3949,-7.4001,-7.3983,-7.3918,-7.4047,-7.3982,-7.3996,-7.4076,-7.4205,-7.4219,-7.4231,-7.4362,-7.4392,-7.4418,0,0,0,0,0,0,-7.3982,-7.3963,-7.3922,-7.4037,-7.405,-7.4035,-7.4099,-7.4048,-7.4078,-7.4064,-7.4003,-7.4003,-7.4104,-7.4098,-7.4027,-7.421,-7.4115,-7.4131,-7.421,-7.4238,-7.4261,-7.426,-7.391,0,0,0,0,0,-7.4025,-7.4079,-7.4059,-7.4162,-7.4171,-7.4135,-7.416,-7.4123,-7.4133,-7.4137,-7.4125,-7.4136,-7.4179,-7.4208,-7.4246,-7.4371,-7.4369,-7.4433,-7.4456,-7.4475,-7.449,-7.4557,-7.4585,-7.428,-7.4279,-7.4279,0,0,-7.4112,-7.4109,-7.4146,-7.4188,-7.4193,-7.425,-7.414,-7.4203,-7.4245,-7.4146,-7.4231,-7.4224,-7.4231,-7.4341,-7.4388,-7.4339,-7.4574,-7.4491,-7.4507,-7.4511,-7.4573,-7.4602,-7.4628,-7.4288,-7.4287,-7.4285,0,0,-7.43,-7.4303,-7.439,-7.4399,-7.4409,-7.4385,-7.4406,-7.44,-7.4392,-7.4478,-7.4405,-7.4453,-7.4528,-7.4537,-7.4551,-7.4747,-7.4689,-7.4761,-7.4881,-7.4947,-7.4971,-7.4992,-7.5063,-7.5089,-7.4776,-7.4776,-7.4776,0,-7.4407,-7.4491,-7.4441,-7.4512,-7.4532,-7.4448,-7.4536,-7.4546,-7.4567,-7.4583,-7.4529,-7.4623,-7.4622,-7.4733,-7.4782,-7.4796,-7.4818,-7.4761,-7.4972,-7.4993,-7.5011,-7.5078,-7.5105,-7.4785,-7.4784,-7.4783,-7.4782,0,-7.4622,-7.4682,-7.4751,-7.4777,-7.4805,-7.4884,-7.4846,-7.488,-7.4842,-7.4824,-7.4912,-7.4909,-7.4945,-7.4969,-7.493,-7.5075,-7.5045,-7.4983,-7.4885,-7.505,-7.5112,-7.5137,-7.4797,-7.4794,-7.4792,-7.479,0,0,-7.4891,-7.4891,-7.4917,-7.4929,-7.4935,-7.498,-7.5055,-7.5093,-7.5124,-7.5143,-7.5204,-7.5271,-7.5214,-7.5231,-7.5193,-7.5252,-7.5408,-7.5182,-7.5181,-7.5224,-7.5568,-7.5615,-7.5646,-7.537,-7.5375,-7.5378,-7.5568,0,-7.5075,-7.5205,-7.5164,-7.5295,-7.5349,-7.5272,-7.5337,-7.5348,-7.5334,-7.5377,-7.536,-7.5409,-7.533,-7.534,-7.5394,-7.5378,-7.5477,-7.5364,-7.5426,-7.5429,-7.5427,-7.5678,-7.5727,-7.5906,-7.5591,-7.5595,-7.5598,0,-7.5307,-7.5338,-7.5476,-7.5475,-7.5497,-7.5557,-7.5589,-7.5632,-7.5643,-7.5628,-7.5649,-7.56,-7.5673,-7.5577,-7.5677,-7.5602,-7.5625,-7.5621,-7.5627,-7.563,-7.5523,-7.5688,-7.5961,-7.5989,-7.5636,-7.5633,-7.563,0,-7.549,-7.5566,-7.5658,-7.567,-7.5672,-7.5717,-7.5719,-7.5725,-7.5752,-7.578,-7.5796,-7.5832,-7.5852,-7.588,-7.5842,-7.5775,-7.5948,-7.5848,-7.5938,-7.5939,-7.5977,-7.5975,-7.6258,-7.5992,-7.5992,-7.5991,-7.5991,0,-7.57,-7.5787,-7.5741,-7.5798,-7.5893,-7.5845,-7.5941,-7.5934,-7.5941,-7.5995,-7.5929,-7.5981,-7.5927,-7.5974,-7.5944,-7.6033,-7.6041,-7.6031,-7.6022,-7.6037,-7.6039,-7.6051,-7.6038,-7.5999,-7.5997,-7.5996,-7.5994,0,-7.592,-7.5892,-7.5988,-7.5984,-7.5985,-7.6056,-7.6051,-7.6103,-7.6085,-7.6154,-7.6167,-7.6139,-7.619,-7.6156,-7.6206,-7.6187,-7.6303,-7.6276,-7.63,-7.6292,-7.6384,-7.6376,-7.6685,-7.6723,-7.6433,-7.6436,-7.6438,0,-7.6056,-7.6121,-7.6125,-7.6158,-7.6166,-7.6219,-7.6246,-7.6202,-7.6233,-7.6252,-7.6302,-7.6349,-7.6384,-7.647,-7.6453,-7.6492,-7.6466,-7.6572,-7.6471,-7.6485,-7.6468,-7.6465,-7.6472,-7.6592,-7.6595,-7.6598,-7.66,0,-7.63,-7.6284,-7.6327,-7.6367,-7.6402,-7.6431,-7.6453,-7.6483,-7.6439,-7.6477,-7.6531,-7.6558,-7.6612,-7.6659,-7.6693,-7.6693,-7.664,-7.6633,-7.6655,-7.6671,-7.6682,-7.6678,-7.6355,-7.6625,-7.6623,-7.6621,-7.662,-7.6619,-7.6481,-7.6537,-7.655,-7.6601,-7.6614,-7.6638,-7.6687,-7.6677,-7.6721,-7.6763,-7.6734,-7.6798,-7.6809,-7.6848,-7.6857,-7.6906,-7.6862,-7.6895,-7.6903,-7.6912,-7.6925,-7.6675,-7.6911,-7.691,-7.691,-7.6909,-7.6909,0,-7.6723,-7.6728,-7.6775,-7.6811,-7.6852,-7.68,-7.6824,-7.686,-7.6918,-7.6934,-7.6971,-7.7033,-7.7079,-7.7067,-7.7109,-7.715,-7.7127,-7.7163,-7.7159,-7.716,-7.6961,-7.6938,-7.7181,-7.7181,-7.7181,-7.7181,-7.7181,-7.7181,-7.6853,-7.6945,-7.6931,-7.703,-7.7033,-7.7097,-7.7115,-7.7137,-7.7149,-7.7223,-7.7262,-7.7255,-7.726,-7.7301,-7.7342,-7.7337,-7.7355,-7.74,-7.7387,-7.7201,-7.7174,-7.7148,-7.7126,-7.7405,-7.7405,-7.7581,-7.7583,-7.7584]}]]